Location: Bucquoy
(50.1391°N, 2.7097°E)
Time: 21:58:58
(UTC+00:00)

Cosmos 2242 Rocket - Pass Details

Date: 06 May 2021
Orbit: 619 x 651 km, 82.5° (Epoch: 21 June)

Event Time Altitude Azimuth Distance (km) Brightness Sun altitude
Exits shadow 00:11:35 74° 141° (SE) 654 3.4 -23.1°
Maximum altitude 00:11:52 78° 98° (E) 644 3.5 -23.1°
Drops below altitude 10° 00:16:20 10° 12° (NNE) 2,015 7.3 -23.0°
Sets 00:18:35 0° 12° (NNE) 2,932 8.5 -22.9°
